[[{"header":{"parameterUnit":"m.s-1","parameterCategory":1,"la1":30.2991,"la2":30.254,"lo1":-89.0895,"lo2":-89.0444,"dy":0.0017,"dx":0.0017,"nx":28,"ny":28,"refTime":"2024-12-08T09:00:00:Z","depth":0,"parameterNumber":2,"parameterNumberName":"U-component_of_WINDS"},"data":[0,0,0,0,0,0,0,0,0,0,0,0,0,0,0,0,0,0,0,0,0,0,0,0,0,0,0,0,0,0,0,0,0,0,0,0,0,0,0,0,0,0,0,0,0,0,0,0,0,0,0,0,0,0,0,0,0,0,1.8205,1.8205,0,1.8169,1.8169,1.8168,1.8108,1.8106,1.8105,1.8104,1.8069,1.8069,1.8069,0,0,0,0,0,0,0,0,0,0,0,0,0,1.8224,1.8224,1.8205,1.8205,1.8204,1.8169,1.8169,1.8168,1.8108,1.8106,1.8105,1.8104,1.8069,1.8069,1.8069,0,0,0,0,0,0,0,0,0,0,0,0,0,1.8205,1.8224,1.8205,1.817,1.8166,1.8169,1.8169,1.8168,1.8108,1.8106,1.8105,1.8103,1.8069,1.8069,1.8069,1.8105,0,0,1.807,1.807,0,0,0,0,0,0,0,0,1.8206,1.8204,1.8176,1.8172,1.8168,1.8141,1.8162,1.8147,1.8109,1.813,1.8104,1.8102,1.8095,1.8093,1.809,1.8103,1.8102,1.807,1.807,1.807,1.807,0,0,0,0,0,0,0,1.8207,1.8205,1.8191,1.8175,1.8171,1.8157,1.8152,1.8159,1.8123,1.8128,1.8124,1.812,1.8092,1.809,1.8088,1.8101,1.807,1.807,1.807,1.807,1.8143,1.8144,0,0,0,0,0,0,1.8214,1.8207,1.8192,1.819,1.8183,1.8158,1.8152,1.8152,1.8122,1.8116,1.8122,1.8118,1.809,1.8088,1.8087,1.8127,1.807,1.807,1.8071,1.8141,1.8143,1.8145,0,0,0,0,0,0,1.8214,1.8213,1.8194,1.8197,1.8194,1.8159,1.8159,1.8152,1.8149,1.8117,1.8111,1.8126,1.8089,1.8087,1.8101,1.8125,1.8071,1.8071,1.8139,1.8142,1.8144,1.8207,0,0,0,0,0,0,1.8215,1.8213,1.8226,1.8198,1.8194,1.8208,1.816,1.8152,1.8149,1.8143,1.8119,1.8113,1.8087,1.8101,1.8101,1.8124,1.8071,1.8136,1.814,1.8143,1.8203,1.8211,1.8219,0,0,0,0,0,1.8216,1.8245,1.8227,1.8226,1.8209,1.8209,1.8207,1.8176,1.8151,1.8164,1.8144,1.8114,1.8122,1.8103,1.8103,1.8126,1.8135,1.8139,1.8143,1.8199,1.821,1.8219,0,0,0,0,0,0,1.8278,1.8241,1.822,1.8241,1.8229,1.8199,1.8214,1.8188,1.8183,1.8177,1.8139,1.8134,1.8154,1.8141,1.812,1.8159,1.8124,1.8128,1.8167,1.8177,1.8185,1.8188,1.8071,0,0,0,0,0,1.8294,1.8297,1.8265,1.8287,1.8281,1.8249,1.8248,1.8225,1.8211,1.8205,1.8186,1.8174,1.8174,1.8174,1.8172,1.82,1.8195,1.8216,1.8225,1.8232,1.8236,1.8251,1.826,1.8158,1.8158,1.8158,0,0,1.8327,1.8307,1.8312,1.8298,1.8286,1.8291,1.8245,1.8252,1.8255,1.8207,1.8219,1.8204,1.8188,1.821,1.8218,1.82,1.8263,1.8237,1.8243,1.8243,1.8256,1.8266,1.8274,1.8161,1.8161,1.816,0,0,1.839,1.8375,1.8392,1.838,1.8362,1.834,1.8345,1.8319,1.8307,1.8319,1.8283,1.8287,1.8287,1.8277,1.8272,1.8332,1.8305,1.8333,1.8376,1.8391,1.8399,1.8406,1.8428,1.8436,1.8337,1.8337,1.8337,0,1.8434,1.8439,1.8404,1.8413,1.8409,1.8365,1.8382,1.8373,1.8355,1.8354,1.8333,1.8333,1.8319,1.8338,1.8353,1.835,1.8354,1.8336,1.84,1.8407,1.8413,1.8434,1.8442,1.8341,1.834,1.834,1.834,0,1.8494,1.8498,1.8514,1.8498,1.8495,1.8508,1.8476,1.8478,1.8456,1.8436,1.8449,1.8431,1.8425,1.8428,1.8406,1.8444,1.8433,1.8407,1.8371,1.8427,1.8446,1.8453,1.8346,1.8344,1.8343,1.8343,0,0,1.8595,1.8559,1.8566,1.8558,1.8535,1.8538,1.855,1.8543,1.8546,1.8535,1.8544,1.8546,1.8522,1.8516,1.8493,1.8506,1.8556,1.8478,1.8477,1.8494,1.8598,1.8618,1.8628,1.8538,1.8539,1.854,1.86,0,1.8653,1.867,1.864,1.8665,1.8669,1.8627,1.8637,1.8625,1.8608,1.8609,1.859,1.8592,1.8559,1.8556,1.8567,1.8548,1.8576,1.8543,1.8547,1.8548,1.8553,1.8638,1.8659,1.8716,1.8607,1.8608,1.8609,0,1.8724,1.8717,1.8742,1.8718,1.8718,1.8728,1.872,1.8721,1.8707,1.8693,1.8688,1.866,1.8671,1.8636,1.865,1.8628,1.8628,1.8619,1.8621,1.862,1.8582,1.864,1.8733,1.8742,1.862,1.8619,1.8618,0,1.8796,1.8792,1.8807,1.8802,1.8774,1.8782,1.8771,1.8754,1.8752,1.8746,1.8744,1.8739,1.8737,1.8734,1.8706,1.8683,1.8725,1.8687,1.8714,1.8715,1.8725,1.8725,1.882,1.8725,1.8724,1.8724,1.8724,0,1.8864,1.8882,1.8839,1.8848,1.8866,1.8832,1.8851,1.8836,1.8822,1.8828,1.8792,1.8798,1.8761,1.8764,1.8742,1.8758,1.8757,1.8747,1.8741,1.8751,1.8752,1.8751,1.8746,1.8727,1.8726,1.8726,1.8725,0,1.8948,1.892,1.8933,1.8906,1.8899,1.8914,1.8891,1.8899,1.8879,1.8888,1.8888,1.8857,1.8859,1.8831,1.8827,1.8812,1.8839,1.8825,1.8844,1.884,1.8869,1.8867,1.8967,1.8978,1.8875,1.8876,1.8877,0,1.8994,1.9006,1.898,1.8981,1.8972,1.8974,1.8972,1.8939,1.8939,1.8923,1.8933,1.8932,1.8929,1.8934,1.8912,1.8909,1.8896,1.8931,1.8895,1.8905,1.8897,1.8897,1.8899,1.8939,1.894,1.8941,1.8942,0,1.9078,1.9064,1.9062,1.9056,1.9055,1.9049,1.904,1.9043,1.9007,1.9009,1.9009,1.9007,1.9004,1.9003,1.8996,1.8985,1.8959,1.8954,1.896,1.897,1.898,1.8976,1.8865,1.8952,1.8951,1.895,1.8949,1.8949,1.9145,1.9154,1.9137,1.9137,1.9127,1.912,1.9126,1.9107,1.9108,1.9101,1.9082,1.9087,1.9073,1.906,1.9052,1.9056,1.9039,1.9048,1.905,1.9053,1.9059,1.8979,1.9055,1.9054,1.9054,1.9054,1.9054,0,1.9228,1.9215,1.9215,1.9204,1.9205,1.9178,1.9168,1.917,1.9174,1.9163,1.9161,1.9163,1.9162,1.9141,1.9138,1.9145,1.9133,1.9146,1.9145,1.9143,1.9074,1.9069,1.9156,1.9156,1.9156,1.9156,1.9156,1.9156,1.9272,1.9286,1.927,1.928,1.9267,1.9271,1.9267,1.9261,1.9252,1.9256,1.9255,1.924,1.9225,1.9221,1.922,1.9214,1.9215,1.9232,1.9222,1.9158,1.9148,1.9139,1.9134,1.9233,1.9233,1.9291,1.9291,1.9292]},{"header":{"parameterUnit":"m.s-1","parameterCategory":1,"la1":30.2991,"la2":30.254,"lo1":-89.0895,"lo2":-89.0444,"dy":0.0017,"dx":0.0017,"nx":28,"ny":28,"refTime":"2024-12-08T09:00:00:Z","depth":0,"parameterNumber":3,"parameterNumberName":"V-component_of_WINDS"},"data":[0,0,0,0,0,0,0,0,0,0,0,0,0,0,0,0,0,0,0,0,0,0,0,0,0,0,0,0,0,0,0,0,0,0,0,0,0,0,0,0,0,0,0,0,0,0,0,0,0,0,0,0,0,0,0,0,0,0,5.1384,5.1384,0,5.139,5.139,5.139,5.1335,5.1333,5.1332,5.133,5.1333,5.1335,5.1336,0,0,0,0,0,0,0,0,0,0,0,0,0,5.1324,5.1326,5.1384,5.1384,5.1384,5.139,5.139,5.139,5.1335,5.1333,5.1331,5.133,5.1333,5.1335,5.1337,0,0,0,0,0,0,0,0,0,0,0,0,0,5.1342,5.1326,5.1384,5.1358,5.1355,5.139,5.139,5.139,5.1336,5.1333,5.1331,5.1329,5.1332,5.1335,5.1337,5.1396,0,0,5.1344,5.1345,0,0,0,0,0,0,0,0,5.1341,5.1344,5.1362,5.136,5.1357,5.1359,5.137,5.1392,5.1336,5.1343,5.133,5.1328,5.1344,5.1345,5.1351,5.1396,5.1396,5.1344,5.1345,5.1346,5.1347,0,0,0,0,0,0,0,5.134,5.1344,5.1386,5.1362,5.1359,5.1345,5.1345,5.1374,5.1356,5.1342,5.1338,5.134,5.1342,5.1349,5.135,5.1396,5.1344,5.1346,5.1347,5.1348,5.1492,5.1494,0,0,0,0,0,0,5.1343,5.1343,5.1386,5.1386,5.1344,5.1348,5.1348,5.1361,5.1355,5.1352,5.1342,5.1337,5.1346,5.1348,5.135,5.1421,5.1346,5.1348,5.1349,5.1489,5.1492,5.1495,0,0,0,0,0,0,5.1342,5.1347,5.1386,5.1364,5.1368,5.1351,5.1366,5.1362,5.1369,5.1355,5.1351,5.1352,5.1344,5.1347,5.1386,5.142,5.1349,5.1351,5.1486,5.149,5.1494,5.1562,0,0,0,0,0,0,5.134,5.1347,5.137,5.1365,5.1369,5.1422,5.1368,5.1364,5.1373,5.1367,5.1364,5.1361,5.1343,5.1383,5.1388,5.1422,5.1353,5.1483,5.1488,5.1492,5.1556,5.1567,5.1576,0,0,0,0,0,5.1338,5.1387,5.1371,5.1376,5.1397,5.1424,5.1426,5.1405,5.1376,5.1399,5.139,5.1361,5.1415,5.1387,5.1392,5.1428,5.1481,5.1487,5.1492,5.1552,5.1565,5.1576,0,0,0,0,0,0,5.1395,5.1386,5.1368,5.1417,5.1422,5.1414,5.1442,5.1419,5.1431,5.1425,5.1398,5.1397,5.1441,5.1437,5.1406,5.1485,5.1443,5.145,5.1486,5.1499,5.1509,5.151,5.1355,0,0,0,0,0,5.1414,5.1437,5.1427,5.1471,5.1475,5.1458,5.1469,5.1453,5.1456,5.1457,5.1451,5.1455,5.1473,5.1485,5.1501,5.1555,5.1554,5.1582,5.1592,5.1601,5.1607,5.1638,5.1651,5.1513,5.1513,5.1513,0,0,5.1451,5.1449,5.1466,5.1483,5.1485,5.1509,5.146,5.1488,5.1506,5.1461,5.1498,5.1494,5.1496,5.1543,5.1563,5.1542,5.1645,5.1608,5.1615,5.1617,5.1645,5.1658,5.1669,5.1517,5.1516,5.1516,0,0,5.1534,5.1534,5.1572,5.1576,5.1579,5.1568,5.1578,5.1574,5.157,5.1607,5.1575,5.1595,5.1626,5.163,5.1636,5.1721,5.1696,5.1727,5.1781,5.1811,5.1821,5.1831,5.1864,5.1875,5.1733,5.1734,5.1734,0,5.158,5.1617,5.1594,5.1625,5.1634,5.1596,5.1635,5.1639,5.1647,5.1654,5.163,5.167,5.1668,5.1717,5.1738,5.1743,5.1754,5.1728,5.1822,5.1831,5.184,5.1871,5.1883,5.1737,5.1737,5.1737,5.1736,0,5.1675,5.1701,5.1731,5.1743,5.1755,5.1789,5.1772,5.1787,5.1769,5.1761,5.1799,5.1796,5.1812,5.1822,5.1804,5.1868,5.1855,5.1827,5.1784,5.1857,5.1886,5.1897,5.1743,5.1742,5.1741,5.174,0,0,5.1793,5.1793,5.1805,5.1811,5.1813,5.1832,5.1865,5.1882,5.1896,5.1903,5.193,5.1958,5.1933,5.194,5.1922,5.1948,5.2019,5.1917,5.1916,5.1938,5.2092,5.2115,5.2129,5.2001,5.2003,5.2005,5.2092,0,5.1876,5.1934,5.1915,5.1973,5.1998,5.1963,5.1991,5.1996,5.1989,5.2008,5.2,5.2021,5.1985,5.1989,5.2013,5.2005,5.205,5.1998,5.2028,5.2029,5.2031,5.2143,5.2167,5.225,5.2103,5.2105,5.2106,0,5.1979,5.1993,5.2055,5.2055,5.2065,5.2091,5.2106,5.2125,5.2129,5.2122,5.2131,5.2108,5.214,5.2097,5.2141,5.2107,5.2117,5.2116,5.2118,5.2122,5.2074,5.2152,5.2276,5.2289,5.2123,5.2122,5.2121,0,5.2062,5.2096,5.2138,5.2143,5.2144,5.2164,5.2165,5.2167,5.2179,5.2191,5.2199,5.2214,5.2223,5.2235,5.2217,5.2187,5.2265,5.2219,5.2261,5.2262,5.2281,5.228,5.241,5.2284,5.2284,5.2284,5.2284,0,5.2157,5.2197,5.2176,5.2202,5.2245,5.2223,5.2267,5.2263,5.2266,5.2291,5.226,5.2283,5.2257,5.2279,5.2264,5.2305,5.2308,5.2304,5.23,5.2308,5.2309,5.2316,5.2311,5.2287,5.2286,5.2286,5.2285,0,5.2258,5.2245,5.2289,5.2287,5.2287,5.232,5.2318,5.2342,5.2333,5.2365,5.237,5.2357,5.238,5.2363,5.2386,5.2376,5.2431,5.2417,5.243,5.2427,5.2471,5.2468,5.2612,5.263,5.2491,5.2492,5.2493,0,5.232,5.2351,5.2353,5.2368,5.2372,5.2396,5.2409,5.2388,5.2402,5.241,5.2434,5.2455,5.2471,5.251,5.2502,5.2519,5.2508,5.2557,5.251,5.2518,5.2511,5.2511,5.2514,5.2567,5.2568,5.257,5.2571,0,5.2433,5.2426,5.2446,5.2466,5.2482,5.2495,5.2506,5.2519,5.2498,5.2516,5.2541,5.2553,5.2578,5.26,5.2615,5.2615,5.259,5.2585,5.2597,5.2606,5.2613,5.2612,5.2458,5.2583,5.2581,5.2581,5.258,5.2579,5.2518,5.2545,5.2551,5.2575,5.2581,5.2593,5.2616,5.2611,5.2632,5.2651,5.2637,5.2667,5.2672,5.2689,5.2693,5.2716,5.2695,5.2711,5.2715,5.272,5.2727,5.2608,5.2718,5.2717,5.2717,5.2717,5.2716,0,5.2632,5.2635,5.2657,5.2675,5.2694,5.267,5.268,5.2698,5.2726,5.2732,5.275,5.2779,5.28,5.2794,5.2813,5.2833,5.2822,5.2839,5.2838,5.2839,5.2743,5.2733,5.2848,5.2848,5.2848,5.2848,5.2848,5.2847,5.2694,5.2738,5.2732,5.2779,5.278,5.2811,5.282,5.283,5.2836,5.2871,5.2889,5.2886,5.2888,5.2907,5.2926,5.2923,5.2933,5.2954,5.2948,5.2859,5.2846,5.2833,5.2824,5.2956,5.2956,5.3043,5.3043,5.3044]}]]